This is the latest recevied weather packets stored in our database for station/object SP4LIN-15. If no packets are shown the sender has not sent any weather packets the latest 10 day(s).
| Time | Temp. | Humidity | Pressure | Rain* | Wind** | Luminosity | Snow |
|---|---|---|---|---|---|---|---|
| 1777847948 | 13.89° C | 50% | 1003.5 hPa | 0 mm | - | - | - |
| 1777847048 | 13.89° C | 49% | 1003.6 hPa | 0 mm | - | - | - |
| 1777846148 | 13.89° C | 49% | 1003.5 hPa | 0 mm | - | - | - |
| 1777845248 | 14.44° C | 48% | 1003.7 hPa | 0 mm | - | - | - |
| 1777844348 | 15° C | 48% | 1003.5 hPa | 0 mm | - | - | - |
| 1777843448 | 15.56° C | 47% | 1003.6 hPa | 0 mm | - | - | - |
| 1777842548 | 15.56° C | 47% | 1003.5 hPa | 0 mm | - | - | - |
| 1777841648 | 16.11° C | 46% | 1003.4 hPa | 0 mm | - | - | - |
| 1777840748 | 16.11° C | 46% | 1003.5 hPa | 0 mm | - | - | - |
| 1777839848 | 16.67° C | 45% | 1003.5 hPa | 0 mm | - | - | - |
| 1777838948 | 17.22° C | 44% | 1003.7 hPa | 0 mm | - | - | - |
| 1777838048 | 17.78° C | 45% | 1003.6 hPa | 0 mm | - | - | - |
| 1777837148 | 17.78° C | 43% | 1003.8 hPa | 0 mm | - | - | - |
| 1777836248 | 17.78° C | 44% | 1003.7 hPa | 0 mm | - | - | - |
| 1777835348 | 17.78° C | 44% | 1003.4 hPa | 0 mm | - | - | - |
| 1777834448 | 17.78° C | 42% | 1003.5 hPa | 0 mm | - | - | - |
| 1777833548 | 18.33° C | 40% | 1003.4 hPa | 0 mm | - | - | - |
| 1777832648 | 19.44° C | 37% | 1003.4 hPa | 0 mm | - | - | - |
| 1777831748 | 20.56° C | 34% | 1003.2 hPa | 0 mm | - | - | - |
| 1777830848 | 22.78° C | 32% | 1003.2 hPa | 0 mm | - | - | - |
| 1777829948 | 24.44° C | 30% | 1003.2 hPa | 0 mm | - | - | - |
| 1777829048 | 25.56° C | 30% | 1003.2 hPa | 0 mm | - | - | - |
| 1777828148 | 26.67° C | 28% | 1003.2 hPa | 0 mm | - | - | - |
| 1777827248 | 27.78° C | 27% | 1003.3 hPa | 0 mm | - | - | - |
| 1777826348 | 28.33° C | 26% | 1003.3 hPa | 0 mm | - | - | - |
* Rain latest hour (hover to see other rain measurements)
** Current wind speed in m/s (hover to see current wind gust speed)